Flag for Austria Weather past 2 weeks in Krems, Lower Austria, Austria

Now
72 °F

Partly sunny.


Feels Like: 72 °F
Forecast: 58 / 90 °F
Wind: 6 mph from West

Location: Tulln Airport

Current Time: Aug 3, 2015 at 11:29:56 AM

Latest Report: Aug 3, 2015 at 10:50 AM


Visibility: 10 mi

Pressure: 30.12 "Hg

Humidity: 78%

Dew point: 64 °F

Location of KremsLocation

Historic Weather in Krems — Graph

°F

Krems temperature yesterday

Maximum temperature yesterday: 72 °F (at 12:50 PM)
Minimum temperature yesterday: 63 °F (at 9:50 PM)
Average temperature yesterday: 66 °F

Past Weeks' High & Low Weather Summary

 TemperatureHumidityPressure
High100 °F (Jul 22, 2:50 PM)100% (Jul 29, 6:50 AM)30.15 "Hg (Jul 29, 6:50 AM)
Low57 °F (Jul 28, 5:50 AM)27% (Jul 19, 3:50 PM)29.71 "Hg (Jul 25, 5:50 AM)
Average75 °F59%29.92 "Hg
* Reported Jul 19 9:50 AM — Aug 3 9:50 AM, Krems, Weather by CustomWeather, © 2015

Note: Actual official high and low records may vary slightly from our data, if they occured in-between our weather recording intervals... More about our weather records

Advertising

Krems weather history for previous 24 hours

 ConditionsComfort  
Time TempWeatherWind HumidityBarometerVisibility
9:50 AM
Mon, Aug 3
66 °FPartly sunny.6 mph88%30.12 "Hg7 mi
8:50 AM64 °FLight rain. Broken clouds.2 mph94%30.12 "Hg9 mi
7:50 AM63 °FSprinkles. Broken clouds.2 mph100%30.12 "Hg9 mi
6:50 AM63 °FLight rain. Broken clouds.1 mph94%30.12 "Hg16 mi
5:50 AM63 °FPassing clouds.5 mph94%30.12 "Hg9 mi
10:50 PM
Sun, Aug 2
63 °FPassing clouds.2 mph94%30.15 "Hg7 mi
9:50 PM63 °FPassing clouds.5 mph94%30.15 "Hg7 mi
8:50 PM64 °FScattered clouds.5 mph88%30.15 "Hg12 mi
7:50 PM66 °FPartly sunny.7 mph88%30.12 "Hg12 mi
6:50 PM66 °FScattered clouds.7 mph88%30.12 "Hg16 mi
5:50 PM68 °FPartly sunny.9 mph83%30.12 "Hg12 mi
4:50 PM68 °FBroken clouds.9 mph83%30.15 "Hg11 mi
3:50 PM66 °FBroken clouds.9 mph88%30.12 "Hg9 mi
2:50 PM66 °FPartly sunny.8 mph94%30.15 "Hg7 mi
1:50 PM66 °FRain showers. Broken clouds.6 mph94%30.12 "Hg7 mi
12:50 PM72 °FBroken clouds.7 mph69%30.12 "Hg12 mi
11:50 AM70 °FBroken clouds.5 mph78%30.12 "Hg11 mi
Weather by CustomWeather, © 2015

See weather overviewHow to use our weather pages